FW0639 Weather Reports


time (UTC)temp
C
wind
direction
speed
KPH
gust
KPH
rain 1hr
cm
rain 24hr
cm
rain mn
cm
humidity
%
barometer
mb
20260503194524 21 7 6.4 27.4 0.00 0.00 0.00 25 1008.4
20260503193511 21 31 4.8 17.7 0.00 0.00 0.00 24 1008.7
20260503192459 21 28 6.4 20.9 0.00 0.00 0.00 24 1009.0
20260503191444 21 20 6.4 20.9 0.00 0.00 0.00 28 1009.4
20260503190446 21 18 3.2 12.9 0.00 0.00 0.00 27 1009.5
20260503185448 21 12 4.8 17.7 0.00 0.00 0.00 26 1009.5
20260503183335 21 72 3.2 16.1 0.00 0.00 0.00 27 1009.8
20260503180022 20 226 1.6 11.3 0.00 0.00 0.00 36 1010.4
20260503175045 19 226 3.2 11.3 0.00 0.00 0.00 35 1010.5
20260503174029 19 181 1.6 14.5 0.00 0.00 0.00 36 1010.7
20260503173044 18 224 3.2 14.5 0.00 0.00 0.00 36 1010.9
20260503172020 18 221 3.2 14.5 0.00 0.00 0.00 35 1011.0
20260503171028 18 221 3.2 14.5 0.00 0.00 0.00 35 1011.2
20260503160103 16 27 1.6 12.9 0.00 0.00 0.00 51 1011.9
20260503150120 10 91 0.0 1.6 0.00 0.00 0.00 77 1012.5
20260503130803 3 61 0.0 0.0 0.00 0.00 0.00 90 1013.2
20260503110411 3 235 0.0 0.0 0.00 0.00 0.00 88 1013.7
20260503080941 8 28 1.6 8.0 0.00 0.00 0.00 78 1014.8
20260503072921 7 36 3.2 8.0 0.00 0.00 0.00 76 1015.6
20260503071936 7 30 0.0 6.4 0.00 0.00 0.00 76 1015.3
20260503070942 7 30 0.0 0.0 0.00 0.00 0.00 75 1015.7
20260503054925 7 44 0.0 0.0 0.00 0.00 0.00 74 1015.0
20260503053927 7 41 0.0 0.0 0.00 0.00 0.00 74 1015.1
20260503052921 7 39 0.0 0.0 0.00 0.00 0.00 73 1015.0
20260503051851 8 34 0.0 0.0 0.00 0.00 0.00 72 1014.9
20260503050838 8 32 0.0 0.0 0.00 0.00 0.00 72 1014.9
20260503045819 8 29 0.0 0.0 0.00 0.00 0.00 72 1014.9
20260503044749 8 22 0.0 0.0 0.00 0.00 0.00 71 1014.9
20260503043755 8 16 0.0 0.0 0.00 0.00 0.00 69 1014.9
20260503042748 8 15 0.0 0.0 0.00 0.00 0.00 68 1015.2
20260503041755 9 15 0.0 0.0 0.00 0.00 0.00 67 1015.1
20260503040812 10 8 0.0 0.0 0.00 0.00 0.00 66 1015.2
20260503035753 10 1 0.0 0.0 0.00 0.00 0.00 65 1015.1
20260503034751 10 359 0.0 0.0 0.00 0.00 0.00 62 1014.9
20260503033747 11 357 0.0 0.0 0.00 0.00 0.00 62 1014.8
20260503032737 11 355 0.0 0.0 0.00 0.00 0.00 59 1014.8
20260503025533 12 349 0.0 3.2 0.00 0.00 0.00 54 1014.4
20260503024519 12 347 0.0 0.0 0.00 0.00 0.00 54 1014.3
20260503023511 13 347 0.0 0.0 0.00 0.00 0.00 51 1014.3
20260503015035 16 339 0.0 0.0 0.00 0.00 0.00 42 1013.9
20260503014017 16 338 0.0 0.0 0.00 0.00 0.00 39 1013.8
20260503012958 17 338 0.0 0.0 0.00 0.00 0.00 39 1013.8
20260503010820 17 338 0.0 3.2 0.00 0.00 0.00 37 1013.8
20260503005759 17 338 1.6 9.7 0.00 0.00 0.00 37 1013.9
20260503004801 18 338 1.6 9.7 0.00 0.00 0.00 35 1013.9
20260503003804 18 338 0.0 6.4 0.00 0.00 0.00 35 1013.9
20260503002815 18 339 1.6 6.4 0.00 0.00 0.00 35 1014.0
20260503001804 18 338 1.6 6.4 0.00 0.00 0.00 35 1014.1
20260503000811 18 338 1.6 6.4 0.00 0.00 0.00 35 1014.1
20260502235833 18 338 0.0 6.4 0.00 0.00 0.00 36 1014.1
20260502234807 18 339 3.2 9.7 0.00 0.00 0.00 36 1014.2
20260502233753 18 340 3.2 11.3 0.00 0.00 0.00 37 1014.3
20260502232808 18 342 3.2 16.1 0.00 0.00 0.00 35 1014.3
20260502231813 18 339 3.2 16.1 0.00 0.00 0.00 38 1014.4
20260502225602 18 338 1.6 4.8 0.00 0.00 0.00 35 1014.5
20260502224550 17 338 1.6 4.8 0.00 0.00 0.00 38 1014.5
20260502222409 17 337 1.6 6.4 0.00 0.00 0.00 39 1014.8
20260502221431 17 337 1.6 9.7 0.00 0.00 0.00 37 1014.9
20260502220450 18 337 3.2 11.3 0.00 0.00 0.00 36 1014.9
20260502215453 18 338 1.6 11.3 0.00 0.00 0.00 38 1015.1
20260502214427 18 337 3.2 11.3 0.00 0.00 0.00 38 1015.1
20260502213444 17 337 1.6 9.7 0.00 0.00 0.00 38 1015.2
20260502212425 18 337 1.6 9.7 0.00 0.00 0.00 39 1015.2
20260502211359 18 338 3.2 9.7 0.00 0.00 0.00 38 1015.2
20260502210349 18 337 1.6 11.3 0.00 0.00 0.00 38 1015.1
20260502205321 18 337 3.2 11.3 0.00 0.00 0.00 38 1015.2
20260502203229 18 3 1.6 14.5 0.00 0.00 0.00 35 1015.3
20260502202210 19 337 1.6 9.7 0.00 0.00 0.00 34 1015.3
20260502201235 19 344 4.8 14.5 0.00 0.00 0.00 36 1015.4
20260502200212 18 337 0.0 9.7 0.00 0.00 0.00 36 1015.5
20260502195145 18 33 3.2 9.7 0.00 0.00 0.00 36 1015.6